User: anonymous   Login
Location: Homewood
(41.1836°S, 175.9581°E)
Time: 00:47:30
(UTC+00:00)
Language:

Cosmos 1703 Rocket - Orbit

View from above orbital plane
View from above orbital plane
View from above satellite
View from above satellite

Ground track
Ground track

The orbit data is extracted from the following two-line orbital elements,

1 16263U 85108B   24174.59309588  .00000610  00000-0  69708-4 0  9996
2 16263  82.5030 229.4272 0019642 181.1022 292.2220 14.84301409 63151
Epoch (UTC): 22 June 2024 14:14:03
Eccentricity: 0.0019642
inclination: 82.5030°
perigee height: 602 km
apogee height: 629 km
right ascension of ascending node: 229.4272°
argument of perigee: 181.1022°
revolutions per day: 14.84301409
mean anomaly at epoch: 292.2220°
orbit number at epoch: 6315

The dashed part of the orbit path shows where the satellite is in the earth's shadow,  

DLR